Location: Berkeley
(37.8716°N, 122.2727°W)
Time: 06:05:41
(UTC-07:00)

BlueWalker 3 - Pass Details

Date: 13 May 2026
Orbit: 447 x 457 km, 53.2° (Epoch: 5 June)

Event Time Altitude Azimuth Distance (km) Brightness Sun altitude
Exits shadow 03:14:32 11° 328° (NNW) 1,492 4.6 -26.0°
Maximum altitude 03:15:10 12° 339° (NNW) 1,468 4.7 -26.0°
Drops below altitude 10° 03:16:31 10° 2° (N) 1,574 5.2 -25.8°
Sets 03:19:53 0° 36° (NE) 2,449 6.8 -25.4°
